カタログに戻る

ARIANE 42P+ DEB

LostHEO
NORAD 28279·DEBRIS·🇫🇷 France

打ち上げ Oct 28, 1992 から Guiana Space Centre

Loading…

次のパス (今後24時間)

TLE

古いSource: Space-Track

元期: Dec 3, 2023, 20:46 UTC

1 28279U 92072N   23337.86590150 -.00000291  00000-0 -14332-1 0  9998
2 28279   7.6758 249.5399 6463997 292.2789  13.6911  2.90303297211850

AllMySatでARIANE 42P+ DEBをリアルタイム追跡

Download on the App Store